Theta_e
293 293 293 293 293 293 293 293 293 293 293 293 293 292 292 292 292 292 292 292 292 292 292 292 292 292 292 291 291 291 291 291 291 291 291 291 291 291 291 291 292 292 292 292 292 292 292 292 292 292 291 290 290 289 288 289 288 288 289 289 290 289 289 289 289 289 288 288 289
292 292 292 292 292 293 293 293 293 293 293 294 294 293 293 292 292 292 292 292 292 292 292 292 292 292 291 292 292 291 291 291 291 291 291 291 291 291 291 291 291 291 291 291 291 292 292 292 292 292 292 291 290 289 288 288 288 288 288 288 289 289 289 289 289 289 289 289 289
291 291 291 291 292 292 292 292 293 292 293 293 293 293 293 293 293 293 292 292 292 292 292 292 291 291 291 292 292 291 291 291 291 291 291 291 290 290 291 291 290 290 290 291 291 291 292 291 292 292 292 292 290 290 289 288 288 288 288 288 289 289 289 289 289 289 289 289 289
289 290 290 290 290 291 291 292 292 292 292 293 292 292 293 293 293 293 293 292 292 292 292 292 291 291 291 291 291 291 291 290 290 290 290 290 290 290 290 290 290 290 290 290 291 291 291 291 291 292 291 291 290 290 290 289 288 288 288 288 289 289 289 289 289 289 289 289 288
288 288 289 289 289 290 291 291 291 291 291 292 292 292 293 293 293 292 292 292 293 293 292 292 292 291 291 292 291 291 291 291 290 290 290 290 290 290 290 290 290 290 290 290 290 290 291 291 291 291 291 290 290 290 290 289 288 288 288 289 289 289 289 289 288 288 288 289 288
286 287 287 288 288 289 290 290 290 290 291 291 291 291 291 292 292 292 292 292 292 292 292 292 291 291 291 292 291 291 291 291 291 290 290 289 289 290 290 290 290 290 290 290 290 290 290 290 291 291 291 291 290 289 289 289 288 288 288 288 288 289 288 288 288 288 287 288 287
285 286 286 286 287 287 288 289 289 290 290 290 289 289 290 290 290 290 290 291 291 292 292 291 291 291 291 291 291 291 291 291 291 290 290 290 289 289 289 289 289 289 289 289 290 290 290 290 291 291 291 291 291 290 289 289 289 288 288 288 288 288 288 287 287 287 287 287 286
285 285 285 286 286 286 287 287 288 288 288 288 288 288 288 289 289 289 290 290 291 291 291 292 291 291 292 292 291 292 291 291 291 291 291 290 290 289 289 288 288 288 288 289 289 289 289 290 291 291 291 291 291 291 290 288 288 288 288 288 288 288 287 287 287 287 286 286 286
285 285 285 285 285 286 286 287 287 287 287 287 287 287 287 288 288 288 289 289 290 290 290 291 291 291 291 291 291 291 291 291 291 291 291 291 290 289 289 289 288 288 288 289 289 288 288 290 290 290 290 291 291 290 289 288 288 288 288 289 288 288 288 287 287 287 287 286 286
284 285 285 285 285 285 285 286 286 286 286 286 286 286 287 287 287 287 288 288 289 289 290 290 290 291 291 291 291 291 291 291 291 290 290 290 290 289 289 289 289 288 288 288 289 288 288 289 289 289 289 289 289 288 288 287 287 287 288 289 289 288 288 287 287 287 287 287 286
284 284 284 285 285 285 285 285 285 285 285 285 285 286 286 286 286 286 286 287 287 288 288 289 290 290 290 291 291 291 291 291 291 291 290 290 290 289 289 289 288 288 288 288 289 289 289 289 288 288 287 289 288 288 287 287 287 287 287 288 288 287 287 287 287 287 287 287 286
283 284 284 284 284 284 284 284 284 284 284 284 285 285 285 285 285 285 286 286 286 286 287 288 289 290 290 290 291 291 291 291 291 291 290 290 290 290 290 289 289 288 288 288 289 289 289 288 288 287 287 288 288 288 288 287 287 287 287 287 287 287 287 287 287 287 287 287 287
283 283 283 283 283 283 283 283 283 283 283 284 284 284 284 285 285 285 285 285 285 285 286 287 288 289 289 289 290 290 291 291 290 290 290 290 290 290 290 290 289 289 289 289 289 289 289 288 287 287 287 287 288 288 288 287 287 287 287 287 287 287 287 287 287 287 287 287 287
283 283 283 283 282 282 282 282 283 283 283 283 283 283 284 284 284 284 284 284 284 285 285 286 287 287 288 288 289 289 290 290 290 290 290 290 290 290 290 290 290 290 289 289 289 288 288 288 287 287 287 287 288 288 288 288 288 288 288 287 287 287 287 287 287 287 287 286 286
282 282 282 282 282 282 282 281 282 282 282 282 283 283 283 283 283 283 283 283 283 284 285 285 285 286 287 287 288 288 289 289 289 290 290 290 290 290 290 290 290 290 290 290 289 289 288 288 288 288 288 288 288 288 288 288 288 288 288 288 287 287 287 287 287 287 287 286 286
282 282 281 281 281 281 281 281 281 282 282 282 282 282 282 282 283 282 282 282 283 283 284 284 284 285 285 286 286 287 287 288 288 289 289 289 289 289 289 289 289 289 289 289 289 289 289 289 289 288 288 288 288 288 288 288 287 288 288 288 287 287 287 287 287 287 287 287 287
281 281 281 280 280 280 280 280 281 281 281 281 281 282 282 282 282 282 281 281 282 282 282 282 283 284 284 284 285 286 286 287 287 288 288 288 289 289 289 289 289 289 289 289 289 289 289 289 289 289 288 288 288 288 288 287 287 287 287 287 287 287 287 287 287 287 287 287 287
281 281 281 280 280 280 280 280 280 280 280 280 281 281 281 281 281 281 280 280 281 281 281 281 282 282 283 283 284 284 285 285 286 286 287 288 288 289 289 289 289 289 289 289 289 289 289 289 289 289 288 288 288 288 288 288 287 287 287 287 287 287 287 287 287 287 287 287 287
280 280 280 280 280 279 279 279 279 279 280 280 280 280 280 280 279 279 279 279 279 279 280 280 280 281 281 282 282 283 284 284 285 285 286 287 288 288 288 289 289 289 289 289 289 289 289 289 289 289 288 288 288 288 288 288 287 287 287 287 287 287 287 287 288 288 288 287 287
279 279 279 280 279 279 279 279 279 279 279 279 279 279 279 278 278 278 278 278 279 279 279 279 279 280 280 280 281 282 282 283 284 284 285 286 286 287 287 288 288 288 289 289 289 289 289 289 289 288 288 288 288 288 287 287 287 287 287 287 287 287 287 287 288 288 288 287 287
279 279 279 279 279 279 279 279 278 278 278 278 278 278 278 278 278 277 277 278 278 278 278 278 278 278 279 279 280 281 281 283 283 283 284 285 285 286 286 287 287 288 288 288 289 289 289 289 288 288 288 288 288 287 287 287 287 287 287 287 287 287 287 287 288 288 288 288 287
279 279 279 279 279 279 278 278 278 278 277 277 277 277 277 277 277 277 277 277 277 277 277 277 278 278 278 279 279 280 281 282 282 283 283 284 285 285 285 286 287 287 287 288 288 288 288 288 288 288 288 288 288 287 287 287 287 287 287 287 287 287 287 287 287 287 287 287 287
278 278 279 279 278 278 278 278 277 277 277 276 276 276 276 276 276 276 276 276 276 277 277 277 277 277 278 278 279 280 280 281 282 282 283 283 284 284 285 285 285 286 286 287 287 288 288 288 287 287 287 287 287 287 287 286 286 286 286 286 286 286 287 287 287 287 287 287 287
278 278 278 279 278 277 277 277 276 276 276 275 275 275 275 275 275 275 275 275 275 275 276 276 277 277 277 278 279 279 280 280 281 281 282 282 283 283 284 284 285 285 286 286 287 288 288 287 287 287 287 287 287 287 287 287 287 286 286 286 286 286 286 286 286 287 287 287 287
277 277 277 277 277 276 276 276 275 275 275 274 274 274 273 273 273 274 274 274 274 274 274 275 276 276 277 278 279 279 279 280 280 281 281 282 282 282 283 283 284 285 285 285 287 289 289 288 289 288 287 287 286 286 286 287 287 286 286 286 286 286 286 286 286 286 286 286 287
277 276 275 275 275 275 275 274 274 274 274 273 273 273 273 272 273 273 273 273 273 274 274 274 275 276 277 278 278 279 279 280 280 280 280 281 281 281 282 283 283 284 285 285 287 289 290 290 290 289 288 287 287 287 286 287 286 286 286 286 286 286 286 286 286 286 286 286 286
275 275 274 274 273 273 273 273 273 273 272 272 272 272 272 272 273 272 272 273 273 273 274 274 275 276 277 278 278 278 278 279 279 280 280 280 280 281 281 282 283 283 284 285 287 288 289 290 290 289 288 287 287 287 287 287 287 286 286 286 286 286 286 285 285 285 286 286 286
275 275 274 274 274 274 274 274 273 272 272 271 271 272 272 271 272 272 272 272 273 273 274 274 275 276 277 277 277 277 278 278 279 279 280 280 280 280 281 282 282 283 284 286 288 289 289 289 289 290 289 287 287 287 287 287 287 287 287 287 287 286 286 286 286 286 286 286 286
275 275 275 274 274 274 274 274 273 272 271 271 271 271 271 271 271 272 272 272 272 273 274 274 275 276 276 276 276 277 277 277 278 279 279 279 280 280 281 281 281 283 285 287 288 288 288 288 289 289 289 289 287 287 286 287 287 287 287 287 287 287 287 286 286 286 286 286 286
275 275 274 274 274 274 274 274 273 272 272 272 271 271 271 271 271 271 272 272 272 273 274 275 275 275 275 275 276 276 277 277 278 278 278 278 279 279 280 281 281 282 284 287 287 287 288 288 288 288 289 289 287 286 286 286 286 286 287 287 287 287 287 287 286 286 286 286 286
275 275 274 274 274 275 275 274 273 272 271 272 271 270 270 271 271 271 272 272 273 273 274 274 274 274 274 275 275 276 276 276 277 277 277 277 278 279 279 280 280 281 283 286 287 287 287 287 288 288 288 289 287 286 285 285 285 285 286 286 286 286 286 287 287 286 286 286 286
275 275 275 275 275 275 275 274 273 272 271 270 270 270 271 271 271 272 272 273 273 273 273 273 273 273 274 274 275 275 275 276 276 276 276 277 277 278 278 279 279 280 282 285 286 286 286 287 287 287 288 288 287 285 285 284 285 285 285 285 285 285 286 286 286 286 286 286 286
275 275 275 275 275 275 275 274 273 272 271 271 271 271 271 271 272 272 272 272 272 273 273 273 273 273 273 274 274 274 275 275 275 276 276 276 277 277 278 278 279 280 282 284 285 286 286 286 286 287 287 287 286 285 284 284 284 284 285 285 285 285 285 286 286 286 286 286 286
275 275 275 275 275 275 274 274 272 272 271 271 271 271 271 271 271 271 272 272 273 273 273 273 273 273 273 274 274 274 274 275 275 275 276 276 276 276 277 277 278 280 283 284 285 285 285 286 286 286 286 286 285 284 284 283 284 284 284 284 284 284 284 285 285 286 286 286 287
274 274 274 274 274 274 273 273 272 271 270 271 271 271 271 271 271 272 272 273 273 273 273 273 273 273 273 273 274 274 274 274 274 274 275 275 276 276 276 277 277 280 282 283 284 284 285 285 285 286 286 285 284 283 283 283 283 283 283 283 283 284 284 284 284 285 285 286 286
272 272 273 273 273 272 272 271 271 270 270 270 271 271 271 271 272 272 272 273 272 272 272 272 272 272 273 273 273 273 273 273 274 274 274 274 275 275 275 276 276 278 281 283 283 284 284 284 285 285 285 284 283 283 282 282 283 283 283 283 283 283 283 284 284 284 285 285 286
271 271 271 271 271 271 271 270 270 270 270 270 270 271 271 271 271 272 272 272 272 271 271 272 272 272 272 272 272 273 273 273 273 273 274 274 274 274 275 275 275 277 279 281 282 282 283 283 284 284 284 283 282 282 282 282 282 282 282 282 282 283 283 283 284 284 284 285 285
271 270 270 270 270 270 270 270 270 270 270 270 270 270 271 271 271 271 271 271 271 271 271 271 271 271 271 272 272 272 273 273 273 273 273 273 274 274 274 274 274 276 277 279 281 281 282 282 283 283 283 281 281 281 281 281 281 281 281 281 282 282 282 283 283 284 284 284 284
270 270 269 269 269 269 269 269 269 269 269 269 269 270 270 270 271 271 271 271 271 271 270 270 271 271 271 271 272 272 272 272 273 273 273 273 273 273 273 273 274 274 276 278 279 280 281 281 282 282 282 281 280 280 280 280 280 280 281 281 281 281 282 282 283 283 283 283 283
269 269 268 268 268 268 268 268 268 268 268 268 269 269 269 269 270 270 271 271 271 270 270 270 270 271 271 271 271 271 271 272 272 272 272 272 272 272 272 272 273 273 274 277 278 279 280 280 281 281 281 280 280 280 280 280 280 280 280 280 281 281 281 282 282 282 283 283 283
268 267 267 267 267 267 267 266 267 267 267 268 268 268 268 269 269 270 270 270 270 270 270 270 270 270 270 270 271 270 270 270 271 271 271 271 271 271 271 271 272 272 273 275 277 278 279 279 280 281 281 280 279 279 279 280 279 279 279 280 280 280 281 281 281 281 282 282 283
Wind_Speed
10 9 8 8 7 7 6 5 5 5 5 5 5 5 5 4 4 4 3 3 3 3 3 3 2 2 2 2 2 3 4 4 5 5 6 6 6 6 6 6 5 5 5 6 6 6 5 5 4 4 3 3 3 3 3 3 4 4 5 6 6 6 7 9 9 9 9 9 7
11 10 9 9 8 7 6 6 6 6 6 6 5 5 5 5 4 4 4 4 3 3 3 3 3 3 4 4 2 2 3 4 5 6 6 6 6 6 6 5 5 5 5 6 6 5 5 5 5 4 4 4 3 4 3 3 3 4 5 7 6 5 6 8 9 9 9 9 7
11 11 10 10 10 9 8 7 7 8 8 7 6 6 6 5 5 5 5 4 4 4 4 4 4 4 4 4 4 3 2 3 4 5 5 6 6 6 6 6 6 6 6 5 5 5 5 5 5 4 4 4 4 4 4 3 3 4 5 6 5 5 5 6 7 7 7 7 7
11 11 11 11 12 11 9 8 9 9 9 7 7 7 7 6 6 6 6 6 5 5 4 4 4 4 4 4 4 4 4 3 3 4 4 5 6 6 6 6 6 6 6 6 6 6 6 6 5 4 4 4 5 5 4 4 4 4 4 5 4 5 5 5 5 5 5 6 7
11 10 10 10 11 10 9 8 9 9 8 7 8 8 8 7 7 7 7 7 7 7 7 7 6 6 5 5 5 5 5 4 4 3 4 4 5 5 6 6 6 6 6 6 6 6 6 6 4 4 4 4 4 4 4 4 4 4 4 4 4 5 5 5 5 5 5 6 6
9 9 9 9 10 9 9 8 9 8 8 7 8 9 8 8 8 9 9 8 8 9 9 9 8 7 7 8 7 7 6 5 4 4 4 4 4 5 5 5 6 6 6 6 6 6 6 6 4 4 4 5 4 4 4 4 5 4 4 4 4 4 4 5 5 4 5 6 7
8 9 9 9 10 9 9 8 8 7 7 7 9 9 9 9 9 10 10 9 9 9 9 9 9 9 9 10 9 8 8 7 6 5 5 4 4 5 5 5 6 6 6 6 6 6 6 5 4 4 4 4 4 5 5 4 5 5 5 5 5 4 5 5 4 4 5 7 8
7 8 9 9 10 10 9 9 7 7 7 7 8 9 10 9 10 10 10 9 9 9 9 8 9 11 11 11 10 10 9 9 9 8 7 6 6 5 5 5 5 5 6 6 6 6 6 5 4 4 5 4 4 5 5 6 6 6 6 6 5 5 5 5 4 5 6 8 9
7 7 8 9 9 10 9 9 8 7 7 8 9 9 9 9 10 10 10 9 8 8 8 8 10 11 11 11 10 10 9 9 9 9 9 8 8 7 6 5 5 5 5 5 5 6 6 5 4 4 5 5 5 5 6 7 7 7 7 6 6 5 5 5 5 6 7 8 9
7 7 8 8 9 9 9 9 8 8 8 8 9 9 9 9 10 10 10 9 9 9 9 9 10 10 10 10 10 9 9 9 9 9 9 9 8 8 7 6 6 6 5 5 5 5 5 5 5 5 5 5 6 7 7 7 7 8 7 6 6 6 6 6 6 7 7 8 9
6 6 7 7 8 9 9 9 8 7 8 8 9 10 10 9 10 10 10 10 10 10 10 10 10 10 10 9 9 9 9 8 8 8 9 9 9 9 8 8 7 7 6 6 5 5 5 5 5 6 6 6 6 7 7 8 8 8 8 6 7 7 7 7 7 7 7 8 9
5 5 5 6 7 8 8 8 7 7 8 8 9 9 9 9 10 10 11 12 12 12 11 11 10 10 9 9 9 9 9 9 9 9 9 9 9 9 9 8 8 8 7 7 5 5 5 5 6 6 7 7 6 6 7 8 8 9 9 8 8 8 8 8 8 8 7 8 9
4 4 5 6 6 7 7 7 6 7 7 8 8 8 8 8 9 10 11 12 12 11 11 11 11 10 10 9 9 9 9 9 9 9 9 9 9 9 9 8 8 8 8 7 6 5 6 6 7 7 8 8 7 7 7 8 9 9 10 10 9 10 10 10 9 8 8 8 9
4 4 4 5 5 6 6 6 6 6 7 8 8 8 8 8 8 9 9 10 11 11 11 11 10 10 10 11 11 11 10 10 9 9 9 9 9 9 8 8 8 8 7 7 6 6 7 7 7 8 8 9 8 8 8 9 9 10 10 10 11 11 11 10 10 9 9 10 10
4 4 4 4 5 5 5 5 5 5 6 7 7 7 7 7 7 8 8 9 10 10 10 10 10 10 11 12 12 12 12 11 11 10 10 9 9 9 9 8 8 8 8 7 6 6 7 8 8 8 9 9 9 9 9 9 10 10 10 11 11 11 11 11 10 10 10 11 11
4 4 4 4 4 5 5 5 4 4 5 6 6 6 6 6 6 7 8 9 9 9 9 10 10 11 11 12 12 12 12 12 12 11 11 10 10 9 9 9 9 9 8 8 8 7 7 8 8 8 9 10 10 10 10 10 10 10 11 11 11 12 12 11 11 11 11 12 11
4 4 4 4 4 4 4 4 4 4 5 5 6 6 6 6 6 6 7 7 8 8 9 11 10 10 11 12 12 11 11 11 12 12 11 11 11 11 10 9 9 9 9 9 9 9 9 8 8 8 9 10 10 10 10 11 11 11 11 12 12 12 12 12 11 11 12 12 12
5 5 4 4 4 4 4 4 4 5 5 6 6 5 5 5 6 6 6 7 7 8 10 11 10 10 10 11 11 10 10 11 11 12 12 12 12 11 11 10 10 9 9 9 9 9 10 10 9 9 9 9 10 10 10 11 11 11 12 12 12 12 12 12 12 12 12 12 13
5 5 5 5 4 4 4 4 4 5 5 5 5 5 5 6 6 6 6 6 7 8 9 10 10 10 10 11 11 10 9 10 11 12 12 12 12 12 12 11 10 9 9 9 9 10 10 10 10 10 9 9 10 10 10 10 11 11 11 12 12 12 12 12 12 12 12 12 12
5 5 5 5 4 4 4 4 4 4 5 5 5 6 6 6 6 6 7 7 7 8 8 9 10 10 11 11 11 11 10 8 10 11 12 12 12 12 12 12 11 10 10 9 9 10 10 10 10 10 10 10 10 10 11 11 11 11 11 11 11 12 12 12 12 12 12 12 12
5 5 5 5 4 4 4 4 4 4 5 5 6 6 6 6 6 7 7 7 8 8 8 8 9 10 11 11 12 11 10 9 9 10 11 11 11 12 12 12 11 11 10 9 10 10 10 10 10 10 10 10 10 10 10 10 11 11 11 11 11 11 12 12 12 12 12 13 12
5 5 5 5 4 4 4 4 4 5 5 5 6 6 6 6 6 7 7 7 7 7 8 9 9 10 10 11 11 11 11 10 10 10 10 10 10 11 11 11 11 11 11 10 10 10 10 10 10 10 10 10 10 11 10 10 11 11 11 11 11 11 12 12 12 12 12 13 13
6 5 5 5 5 5 5 5 5 5 5 5 6 6 6 6 7 7 7 7 7 7 8 8 9 10 10 11 11 11 11 11 11 10 10 10 10 10 10 10 10 11 11 10 10 10 10 9 10 10 10 10 10 11 11 11 11 11 11 12 12 12 11 11 12 12 12 12 12
7 6 6 5 6 6 6 5 5 6 6 6 6 6 6 7 7 7 7 7 8 8 9 8 9 10 11 11 11 11 11 11 11 11 10 10 10 10 10 9 9 9 9 9 9 10 9 8 8 8 8 9 9 10 10 10 11 11 11 12 12 12 11 11 11 12 12 12 12
7 7 7 6 7 6 6 6 6 6 6 6 6 6 6 7 7 7 7 8 8 8 9 10 10 10 10 10 10 10 10 10 11 11 10 10 10 10 9 9 8 8 8 8 11 13 14 12 10 9 8 8 8 9 9 10 10 11 11 11 11 11 11 12 12 12 12 13 13
8 8 8 7 7 7 7 7 7 7 7 6 6 7 7 6 6 7 7 8 9 9 9 10 10 10 9 9 10 10 9 9 9 10 10 10 11 11 10 9 8 8 8 9 13 16 18 19 18 14 10 8 8 8 9 9 10 10 11 11 11 12 12 12 12 13 13 12 13
8 8 8 8 7 7 8 7 7 7 6 6 7 7 7 7 7 7 8 9 10 10 9 9 9 9 9 8 9 9 9 9 9 10 10 10 11 11 11 10 8 8 8 10 15 18 20 21 21 20 16 11 9 9 9 9 10 10 11 11 11 12 12 13 13 13 13 13 13
9 8 9 9 9 9 8 8 8 7 7 7 7 7 7 7 8 8 9 9 10 10 9 8 8 7 7 8 9 10 10 11 10 10 10 11 12 12 11 10 9 9 10 14 17 19 21 21 22 22 20 14 11 9 9 10 10 10 10 10 11 11 12 13 12 12 13 13 13
10 10 9 9 10 10 9 9 8 8 8 7 7 7 7 7 8 9 9 10 10 10 10 9 8 8 8 10 10 11 12 12 11 10 11 12 12 12 12 11 11 11 13 17 19 21 22 22 23 23 23 20 13 9 8 8 9 9 9 9 9 10 11 11 11 11 12 12 12
10 10 10 10 10 10 10 9 9 8 7 7 7 7 8 8 9 9 10 10 11 10 10 10 10 11 12 12 12 12 12 12 11 10 11 12 12 12 12 12 11 12 14 18 20 21 22 23 23 23 24 23 17 12 9 9 9 9 9 9 10 11 12 12 12 12 12 11 12
10 10 10 10 10 10 10 10 9 8 8 7 7 8 8 9 9 9 9 9 10 11 11 12 13 14 14 14 13 13 14 13 12 12 12 12 13 13 13 13 13 13 15 18 21 23 23 23 23 24 24 24 18 12 9 9 10 10 10 10 11 12 13 12 12 13 13 13 12
10 10 10 10 11 11 11 10 9 9 8 8 8 9 9 9 9 9 9 9 10 11 13 13 14 15 15 15 15 15 15 15 14 13 13 13 13 14 14 14 14 14 16 20 23 24 24 24 24 24 25 25 19 14 11 11 11 11 11 12 13 14 13 12 12 13 14 14 13
10 10 10 11 11 11 11 10 9 9 9 9 9 9 10 10 10 10 9 9 9 11 13 14 14 15 16 16 16 17 17 16 15 15 15 15 15 15 15 15 14 14 17 21 24 25 25 25 25 25 25 25 19 14 12 11 11 11 11 12 13 14 14 15 14 14 14 15 14
10 10 10 11 11 11 11 10 9 9 9 9 10 10 10 9 10 10 10 9 9 10 12 13 14 15 16 16 17 17 17 16 15 15 16 16 16 17 17 15 13 14 18 23 25 26 26 26 26 26 26 24 17 13 12 13 12 12 12 13 14 14 14 14 15 15 15 15 14
9 9 10 10 10 10 10 10 9 9 9 10 10 10 10 9 11 11 11 11 11 12 13 14 15 16 16 17 16 17 17 17 16 16 16 16 16 17 18 18 16 17 21 25 26 27 26 26 27 27 26 23 16 12 12 13 13 13 14 15 15 15 15 15 15 15 15 15 15
8 8 9 9 9 9 9 9 9 9 9 10 11 11 11 11 11 11 11 11 13 14 15 16 16 17 18 18 17 16 16 17 17 16 16 16 17 18 19 20 18 20 23 26 28 28 28 28 28 28 27 22 15 12 11 12 12 13 14 15 16 16 16 15 15 14 14 14 15
8 8 9 9 9 9 9 9 10 10 11 11 11 11 12 13 12 12 11 11 13 16 17 17 17 18 18 18 17 17 17 17 17 17 17 16 17 18 20 20 20 20 22 26 28 29 29 29 29 28 26 20 14 12 12 11 11 12 13 15 16 16 15 14 14 14 14 14 15
8 9 9 10 10 10 10 11 11 11 12 12 12 12 12 14 14 14 13 12 14 16 18 18 18 19 19 18 18 18 18 18 17 18 18 18 17 17 19 20 20 20 21 24 27 29 30 30 31 29 26 19 15 13 12 12 12 13 13 13 14 14 14 12 12 12 13 14 16
9 9 10 10 11 11 12 12 12 13 13 14 15 15 15 15 15 15 15 14 15 17 18 18 19 19 18 18 18 18 19 18 18 18 18 17 16 16 17 19 20 20 21 24 29 31 32 32 32 32 29 23 17 14 13 12 13 14 14 13 13 14 14 12 11 11 12 14 17
10 10 10 11 12 12 13 14 14 14 14 15 16 17 16 16 16 16 16 15 16 16 17 17 19 19 18 17 18 19 19 19 18 17 17 17 16 16 17 19 20 21 23 26 30 33 34 34 35 34 31 24 18 15 13 13 14 15 15 14 13 13 13 12 11 11 11 13 15
10 10 11 12 12 13 14 15 16 16 16 16 17 17 16 17 17 17 16 15 16 16 16 16 18 18 18 17 17 18 20 20 20 19 18 18 18 18 18 19 21 22 24 25 30 33 35 36 36 36 33 26 19 15 14 13 14 16 17 16 14 13 13 12 11 11 11 12 12
Wind_Direction
21 19 17 13 8 4 359 356 355 354 351 348 344 341 340 341 337 334 333 336 336 333 328 326 319 312 305 286 230 212 211 215 219 222 225 229 233 237 240 244 246 248 250 252 254 257 259 259 258 257 254 249 247 247 244 234 230 230 231 231 231 230 229 230 232 231 230 229 228
19 18 16 14 11 7 4 1 359 355 351 348 344 342 340 339 336 334 333 333 333 333 332 330 329 327 322 314 290 245 222 219 221 223 225 228 231 234 238 242 245 246 246 248 250 251 253 254 254 255 255 253 250 250 248 239 228 230 235 235 234 233 232 233 234 234 233 234 234
16 15 15 14 12 10 8 5 1 356 352 349 348 346 345 343 341 339 337 335 334 335 334 329 326 324 320 317 311 294 260 234 227 226 228 230 232 234 235 238 242 243 245 245 245 246 246 247 248 250 251 252 250 249 248 245 234 232 235 237 237 235 234 236 235 235 235 237 236
16 15 14 13 11 10 8 7 3 359 357 357 355 353 351 350 349 346 343 340 339 337 334 328 324 321 317 315 311 305 295 274 250 239 235 236 235 235 234 234 237 240 242 242 243 242 243 243 245 246 248 248 247 247 246 244 239 237 237 237 237 236 236 238 236 234 235 237 236
14 13 13 12 9 8 7 8 7 5 4 4 3 360 358 356 353 351 348 346 343 340 336 334 330 325 321 316 312 308 303 296 280 263 251 248 245 242 238 236 237 238 239 239 239 239 240 240 242 244 245 246 246 244 243 240 239 240 242 242 239 237 238 240 238 236 235 238 237
12 11 11 11 9 7 6 7 10 10 9 9 6 3 1 359 357 354 351 347 344 342 341 340 338 334 330 327 322 316 311 306 297 284 270 261 256 253 248 245 243 242 241 240 240 238 237 235 237 241 243 244 246 245 243 239 240 242 245 246 241 239 239 239 238 237 235 237 237
12 11 10 9 8 6 4 3 9 11 12 11 8 4 1 360 358 355 351 348 347 346 345 344 343 341 339 337 332 327 322 317 311 304 293 280 270 262 256 252 250 249 247 246 244 242 238 231 234 236 239 239 244 245 243 240 240 241 243 245 242 239 238 239 238 237 236 236 236
13 12 10 9 7 4 1 360 7 11 13 12 8 3 0 360 360 357 353 351 350 347 344 343 343 342 340 339 335 331 326 322 318 313 307 299 291 281 271 262 259 256 253 250 248 246 243 238 237 235 235 235 238 239 239 238 238 238 240 242 243 240 236 235 236 236 236 237 236
12 10 8 7 5 3 360 358 4 9 12 10 6 2 360 0 1 359 356 354 348 344 342 343 342 340 338 336 333 330 327 324 320 316 311 306 301 295 288 281 273 267 262 258 254 251 248 246 245 240 236 232 233 233 233 232 235 237 238 241 243 242 240 237 236 235 236 237 237
10 8 6 5 3 1 358 356 1 6 9 8 4 2 360 1 2 1 357 352 346 344 344 343 341 338 335 332 329 327 324 322 319 316 312 308 303 298 293 287 281 276 272 269 263 259 256 254 253 248 243 237 234 232 231 229 232 234 237 240 241 242 242 240 238 237 237 238 239
10 8 6 4 1 359 357 357 358 2 5 5 2 1 360 360 1 359 355 351 348 346 344 342 340 337 334 331 328 325 322 320 317 315 312 309 304 299 294 288 283 278 275 272 269 266 263 261 258 255 251 246 240 237 235 232 232 234 236 238 239 241 242 242 240 239 239 239 240
11 9 7 4 1 360 359 357 357 359 1 1 360 359 358 358 358 356 353 351 349 346 343 342 340 337 334 331 328 324 321 317 314 311 308 306 303 299 295 291 286 281 277 273 271 269 266 264 260 258 256 252 249 245 242 239 237 237 238 238 238 239 241 242 241 240 240 240 241
13 11 8 5 4 3 1 359 356 357 358 358 357 356 354 353 354 354 353 351 348 344 341 340 338 336 334 331 328 325 321 317 313 310 306 303 301 298 296 292 288 284 280 276 274 271 268 265 262 259 258 256 254 251 247 244 242 242 242 241 239 239 239 240 239 240 241 241 242
12 12 10 6 7 6 4 360 356 355 355 354 353 351 350 349 351 353 352 349 344 341 338 337 336 335 332 330 328 325 323 319 315 311 307 303 300 298 295 292 288 285 281 278 275 271 268 266 263 260 259 258 256 254 251 248 247 246 245 244 242 240 239 238 237 238 240 241 243
5 7 8 9 10 9 6 1 356 353 351 350 347 346 345 345 347 348 347 345 340 337 336 335 333 331 329 328 327 326 325 323 320 317 313 309 304 301 297 293 289 286 282 278 274 270 266 264 263 261 260 259 258 257 255 253 251 250 248 247 246 244 242 240 237 236 237 238 241
355 359 4 8 10 9 6 360 354 350 347 344 341 341 341 340 341 343 343 340 337 335 334 333 330 328 327 327 327 327 326 325 324 321 318 314 310 306 301 296 291 287 283 279 276 271 266 263 261 260 260 260 260 259 258 256 255 253 252 251 250 248 246 243 239 236 235 235 237
348 350 355 1 4 3 360 355 350 345 341 337 335 335 335 335 336 337 337 336 333 331 329 328 327 326 324 324 325 325 325 324 323 321 319 317 314 310 305 299 293 288 284 281 278 274 269 264 261 259 258 259 260 260 259 258 258 256 255 254 252 251 249 247 243 240 238 235 235
341 342 345 350 353 353 350 347 343 339 335 331 329 328 328 330 331 330 330 329 328 326 325 323 323 321 320 319 320 320 320 319 318 317 316 314 313 310 307 302 296 291 286 281 278 275 272 268 264 261 258 257 258 258 258 258 258 258 257 256 255 253 252 250 247 245 242 239 237
334 335 336 338 338 338 338 337 335 333 328 325 322 321 321 323 324 324 324 323 323 322 321 319 318 317 316 314 313 313 312 312 311 310 310 310 310 309 307 305 300 295 289 283 279 275 273 270 267 264 261 259 257 257 256 256 257 256 256 256 255 254 253 251 249 247 245 243 240
328 327 327 325 324 325 326 327 326 323 320 317 315 314 315 317 319 320 319 317 317 317 316 315 314 313 311 310 308 307 305 304 304 304 304 305 306 306 306 305 302 299 293 287 282 278 275 273 270 267 264 261 259 258 256 254 254 254 254 254 254 254 253 251 250 248 246 244 242
318 317 314 313 313 313 313 314 315 314 312 311 309 309 310 312 314 314 312 309 310 312 312 310 310 308 307 305 303 301 299 297 297 296 297 298 300 301 301 303 302 301 297 292 287 282 278 275 273 271 268 265 262 260 258 257 255 253 252 252 252 252 252 251 250 248 247 245 243
306 304 303 303 303 304 304 305 307 307 306 305 304 305 306 308 308 306 305 304 306 307 307 306 305 303 301 298 296 295 294 292 291 289 289 291 292 294 296 298 300 299 297 295 290 285 281 277 274 272 271 269 267 264 262 259 258 256 254 253 252 251 250 249 249 248 247 245 243
296 295 296 298 299 301 302 303 303 303 302 301 301 302 303 304 303 302 302 303 303 303 302 301 300 297 295 292 289 288 288 288 286 285 284 284 285 288 290 292 294 294 293 292 289 286 283 280 276 273 270 269 267 266 263 261 260 259 257 256 254 252 250 248 248 247 247 246 244
294 295 296 299 301 301 302 302 302 301 300 297 298 299 300 299 300 300 301 301 300 299 298 297 296 293 290 287 284 282 281 281 282 282 282 282 282 284 286 287 287 287 286 286 285 283 282 280 277 273 270 266 265 264 263 261 260 259 258 258 257 255 252 249 247 246 246 246 245
298 299 300 301 302 301 301 301 300 298 295 294 295 296 298 298 298 299 300 299 298 297 296 295 293 291 288 285 281 278 275 275 276 278 280 282 283 283 284 284 283 282 281 280 281 282 282 282 281 278 273 268 265 263 261 259 258 257 257 257 256 256 255 253 250 247 245 245 244
304 304 303 301 301 301 300 297 295 293 292 293 296 297 297 298 298 299 300 300 299 298 297 295 293 290 287 284 282 280 277 275 274 276 278 282 283 283 282 280 279 278 277 276 280 282 284 285 285 283 279 275 270 267 264 261 257 256 255 255 254 255 255 255 252 249 246 244 242
306 305 304 302 303 301 297 294 293 292 292 293 295 295 295 297 300 301 302 302 301 300 298 295 292 289 288 286 285 284 283 281 280 279 279 279 280 279 277 275 272 271 271 272 276 279 282 284 285 284 283 278 274 270 267 266 261 258 256 255 254 253 252 253 252 251 249 246 242
304 303 303 304 302 300 297 296 296 293 291 290 290 291 293 298 300 302 302 302 303 303 302 300 296 295 294 293 290 288 286 283 282 281 279 277 275 273 272 271 267 265 265 269 274 277 280 283 283 284 283 280 277 273 269 268 266 263 259 257 255 253 251 251 251 250 249 247 244
299 300 302 302 299 298 297 297 294 290 287 286 287 290 294 298 299 300 301 303 304 305 306 305 304 303 300 297 294 291 287 283 281 279 277 276 273 271 269 268 267 265 266 268 273 276 279 281 282 282 282 281 278 274 270 268 267 265 262 260 257 255 253 251 251 250 249 248 246
295 296 296 295 294 293 292 291 287 285 284 284 287 290 293 295 297 299 300 302 302 302 302 304 303 300 297 294 293 291 288 284 282 279 276 274 273 271 269 268 267 267 268 269 272 275 277 279 280 280 281 280 278 274 271 268 267 265 264 262 260 258 256 255 254 252 250 249 247
290 290 290 289 288 288 287 285 283 282 282 283 284 287 288 290 291 293 295 297 298 298 299 300 298 295 292 291 290 288 287 286 284 281 277 274 273 271 270 269 267 267 268 269 272 273 274 276 277 278 278 279 276 272 267 265 263 263 262 262 260 259 258 258 256 254 252 250 248
284 284 284 284 283 282 282 282 281 280 280 279 280 281 282 283 284 286 289 292 295 297 298 297 295 293 292 292 290 288 286 286 283 280 277 275 273 272 271 270 267 266 267 268 270 272 273 274 275 275 276 277 275 271 266 263 262 261 261 260 259 259 258 258 257 256 254 252 249
280 280 280 279 279 279 279 279 278 278 277 276 276 277 278 280 283 286 288 290 291 292 293 293 292 292 291 291 290 288 286 284 281 279 277 275 274 274 273 272 269 266 266 267 269 270 272 273 273 274 275 275 274 271 266 263 262 261 260 259 258 257 256 256 256 255 255 253 251
280 280 279 278 279 279 280 280 279 278 278 277 276 276 277 280 284 286 288 289 290 289 289 288 288 288 286 286 285 284 283 281 279 277 276 276 275 275 274 272 269 267 267 268 269 270 271 272 273 274 274 274 272 269 264 262 260 259 258 258 257 256 255 254 253 254 253 253 251
286 286 286 285 285 286 286 286 286 284 283 281 281 280 280 281 283 285 287 290 291 290 288 287 286 285 283 282 280 279 279 278 277 276 275 275 275 274 274 272 271 270 270 271 272 272 273 273 274 274 275 275 273 268 263 261 259 258 257 257 256 255 254 253 252 252 251 251 250
299 300 299 299 299 298 298 297 296 294 291 288 287 287 287 286 286 286 288 291 291 289 287 286 286 284 282 281 280 278 276 275 276 275 274 273 273 274 274 274 273 273 273 274 275 276 276 275 275 275 276 275 273 268 264 261 259 258 256 256 255 254 253 251 251 250 249 248 247
318 318 316 315 313 312 310 309 307 303 299 296 294 293 292 292 292 291 291 293 291 288 286 286 285 283 281 281 280 278 276 275 275 275 275 272 272 272 274 275 274 275 275 277 278 278 278 278 277 277 276 275 272 268 265 262 260 257 256 255 255 253 252 250 249 248 247 245 243
332 332 330 326 323 321 319 316 312 308 304 302 299 298 296 296 295 294 293 292 290 288 286 285 283 281 280 281 280 278 277 275 274 274 273 272 270 271 272 275 274 275 276 277 278 278 279 279 278 278 277 274 272 269 266 263 260 257 255 254 254 252 250 248 247 246 244 242 240
338 338 335 331 327 323 320 317 313 309 306 304 302 300 299 298 295 294 293 291 287 286 285 284 282 281 281 281 281 279 278 276 274 273 272 273 272 271 272 274 275 276 276 277 278 278 278 278 278 278 276 274 272 269 265 263 260 258 255 253 253 252 250 247 244 244 244 242 238
338 337 334 330 325 321 317 313 309 306 305 303 301 300 298 297 295 293 292 290 287 285 284 284 283 283 283 283 282 281 281 280 277 276 275 276 276 275 275 276 277 277 278 277 278 278 278 278 277 276 276 274 271 267 264 262 260 258 255 252 251 251 250 247 243 243 243 243 239
335 333 329 324 319 316 312 308 305 303 302 300 298 297 297 296 294 294 293 292 290 289 288 287 287 287 288 287 286 285 285 284 282 281 280 280 280 279 278 278 278 278 278 277 277 277 277 276 276 275 274 272 269 266 263 260 258 256 254 251 249 249 249 248 245 243 242 242 240